This demonstration page uses our WeatherBlox Daily Observations layout. Learn more.

Hourly Observations for March 19, 2015

Temp ( °F °C ) Dew Point ( °F °C ) Humidity (%) Winds ( mph kmh ) Pressure ( in mb ) Visibility ( mi km ) Precip ( " mm )
12:15 am 00:15 Clear 39 4 26 -3.2 60 60 SE 7 11 30.09 1019 10 16.0934 0 0
12:35 am 00:35 Clear 38 3.6 26 -3.2 61 61 SE 7 11 30.09 1019 10 16.0934 0 0
12:55 am 00:55 Clear 38 3.1 26 -3.2 64 64 SSE 6 9 30.15 1021 10 16.0934 0 0
1:15 am 01:15 Partly Cloudy 37 3 26 -3.5 63 63 SSE 3 6 30.15 1021 10 16.0934 0 0
1:35 am 01:35 Mostly Cloudy 37 3 26 -3.1 65 65 S 3 6 30.15 1021 10 16.0934 0 0
1:55 am 01:55 Mostly Cloudy 38 3.2 27 -2.9 65 65 S 5 7 30.15 1021 10 16.0934 0 0
2:15 am 02:15 Cloudy 38 3.2 28 -2.5 67 67 S 5 7 30.15 1021 10 16.0934 0 0
2:35 am 02:35 Cloudy 38 3.2 28 -2.1 69 69 S 3 6 30.15 1021 10 16.0934 0 0
2:55 am 02:55 Mostly Cloudy 38 3.1 30 -1.2 74 74 S 5 7 30.15 1021 10 16.0934 0 0
3:15 am 03:15 Partly Cloudy 37 3 30 -1.1 75 75 S 3 6 30.09 1019 10 16.0934 0 0
3:35 am 03:35 Clear 37 2.7 30 -1 77 77 Calm 30.15 1021 10 16.0934 0 0
3:55 am 03:55 Clear 36 2 29 -1.5 78 78 Calm 30.12 1020 10 16.0934 0 0
4:15 am 04:15 Clear 35 1.5 29 -1.9 78 78 Calm 30.12 1020 10 16.0934 0 0
4:35 am 04:35 Clear 35 1.6 29 -1.7 79 79 E 3 6 30.12 1020 10 16.0934 0 0
4:55 am 04:55 Clear 35 1.5 29 -1.9 78 78 Calm 30.12 1020 10 16.0934 0 0
5:15 am 05:15 Clear 33 0.5 28 -2.4 81 81 Calm 30.12 1020 10 16.0934 0 0
5:35 am 05:35 Clear 33 0.3 28 -2.5 82 82 Calm 30.12 1020 10 16.0934 0 0
5:55 am 05:55 Clear 32 0 26 -3.1 80 80 Calm 30.12 1020 10 16.0934 0 0
6:15 am 06:15 Clear 30 -1.1 25 -4 81 81 NE 5 7 30.15 1021 10 16.0934 0 0
6:35 am 06:35 Clear 32 -0.1 26 -3.4 79 79 Calm 30.12 1020 10 16.0934 0 0
6:55 am 06:55 Clear 31 -0.5 26 -3.5 80 80 Calm 30.12 1020 10 16.0934 0 0
7:15 am 07:15 Clear 31 -0.6 26 -3.5 81 81 Calm 30.15 1021 10 16.0934 0 0
7:35 am 07:35 Clear 32 0.1 27 -2.7 82 82 Calm 30.18 1022 10 16.0934 0 0
7:55 am 07:55 Sunny 32 0.2 28 -2.5 82 82 Calm 30.18 1022 10 16.0934 0 0
8:15 am 08:15 Sunny 33 0.7 28 -2.1 82 82 Calm 30.15 1021 10 16.0934 0 0
8:35 am 08:35 Sunny 33 0.7 28 -2.2 81 81 Calm 30.15 1021 10 16.0934 0 0
8:55 am 08:55 Sunny 34 1.3 29 -1.6 81 81 Calm 30.18 1022 10 16.0934 0 0
9:55 am 09:55 Partly Cloudy 40 4.5 33 0.5 76 76 W 6 9 30.15 1021 10 16.0934 0 0
10:15 am 10:15 Partly Cloudy 40 4.6 34 0.9 77 77 W 6 9 30.15 1021 10 16.0934 0 0
10:35 am 10:35 Partly Cloudy 42 5.6 34 0.9 72 72 W 7 11 30.15 1021 10 16.0934 0 0
10:55 am 10:55 Sunny 44 6.7 33 0.6 65 65 WSW 6 9 30.12 1020 10 16.0934 0 0
11:15 am 11:15 Sunny 44 6.7 33 0.6 65 65 SSW 5 7 30.12 1020 10 16.0934 0 0
11:35 am 11:35 Sunny 44 6.6 33 0.3 64 64 WSW 5 7 30.12 1020 10 16.0934 0 0
11:55 am 11:55 Sunny 45 7.1 33 0.5 63 63 W 7 11 30.12 1020 10 16.0934 0 0
12:15 pm 12:15 Sunny 46 7.9 34 0.9 62 62 WNW 6 9 30.12 1020 10 16.0934 0 0
12:35 pm 12:35 Sunny 47 8.5 34 1 60 60 W 6 9 30.12 1020 10 16.0934 0 0
12:55 pm 12:55 Sunny 48 8.9 33 0.8 57 57 W 7 11 30.12 1020 10 16.0934 0 0
1:15 pm 13:15 Sunny 51 10.7 34 1.2 52 52 W 7 11 30.09 1019 10 16.0934 0 0
1:35 pm 13:35 Partly Cloudy 53 11.9 34 1 48 48 W 12 19 30.09 1019 10 16.0934 0 0
1:55 pm 13:55 Mostly Cloudy 54 12.1 34 0.9 47 47 W 8 13 30.06 1018 10 16.0934 0 0
2:15 pm 14:15 Mostly Cloudy 54 12.4 33 0.5 44 44 WNW 8 13 30.06 1018 10 16.0934 0 0
2:35 pm 14:35 Cloudy 55 12.7 32 0 42 42 NW 8 13 30.06 1018 10 16.0934 0 0
2:55 pm 14:55 Partly Cloudy 57 13.7 31 -0.4 38 38 WNW 3 6 30.03 1017 10 16.0934 0 0
3:15 pm 15:15 Sunny 57 14 30 -1.3 35 35 NNW 8 13 30 1016 10 16.0934 0 0
3:35 pm 15:35 Sunny 57 14.1 29 -1.4 35 35 NW 5 7 30 1016 10 16.0934 0 0
3:55 pm 15:55 Sunny 59 15.1 29 -1.6 32 32 NNE 3 6 30 1016 10 16.0934 0 0
4:15 pm 16:15 Sunny 60 15.7 28 -2.1 30 30 WNW 6 9 30 1016 10 16.0934 0 0
4:35 pm 16:35 Sunny 60 15.7 28 -2.1 30 30 WNW 7 11 30 1016 10 16.0934 0 0
4:55 pm 16:55 Sunny 61 16.1 28 -2 29 29 NW 7 11 29.94 1014 10 16.0934 0 0
5:15 pm 17:15 Sunny 61 16.2 28 -2 29 29 W 7 11 29.94 1014 10 16.0934 0 0
5:35 pm 17:35 Sunny 62 16.4 29 -1.8 29 29 WNW 7 11 29.94 1014 10 16.0934 0 0
5:55 pm 17:55 Sunny 62 16.8 29 -1.9 28 28 NW 6 9 29.94 1014 10 16.0934 0 0
6:15 pm 18:15 Sunny 62 16.9 29 -1.9 28 28 WNW 8 13 29.94 1014 10 16.0934 0 0
6:35 pm 18:35 Sunny 62 16.6 29 -1.9 28 28 NW 6 9 29.94 1014 10 16.0934 0 0
6:55 pm 18:55 Sunny 62 16.9 28 -2.3 27 27 NW 6 9 29.94 1014 10 16.0934 0 0
7:15 pm 19:15 Sunny 61 16.1 28 -2.5 28 28 Calm 29.94 1014 10 16.0934 0 0
7:35 pm 19:35 Sunny 60 15.3 26 -3.2 28 28 Calm 29.97 1015 10 16.0934 0 0
7:55 pm 19:55 Clear 57 14.1 26 -3.5 30 30 Calm 29.97 1015 10 16.0934 0 0
8:15 pm 20:15 Clear 54 12.2 26 -3.6 33 33 Calm 30 1016 10 16.0934 0 0
8:35 pm 20:35 Clear 53 11.9 26 -3.5 34 34 SW 6 9 30.03 1017 10 16.0934 0 0
8:55 pm 20:55 Clear 49 9.6 26 -3.3 40 40 Calm 30.03 1017 10 16.0934 0 0
9:15 pm 21:15 Clear 43 6 24 -4.7 47 47 Calm 30.12 1020 10 16.0934 0 0
9:35 pm 21:35 Clear 42 5.4 23 -5.2 47 47 Calm 30.12 1020 10 16.0934 0 0
9:55 pm 21:55 Clear 42 5.5 23 -5.1 47 47 Calm 30.15 1021 10 16.0934 0 0
10:15 pm 22:15 Clear 39 4 21 -5.9 49 49 NE 5 7 30.15 1021 10 16.0934 0 0
10:35 pm 22:35 Clear 41 4.9 21 -6 46 46 NNE 3 6 30.15 1021 10 16.0934 0 0
10:55 pm 22:55 Clear 41 5 21 -5.9 46 46 NNE 3 6 30.15 1021 10 16.0934 0 0
11:15 pm 23:15 Clear 38 3.2 20 -6.9 48 48 N 3 6 30.18 1022 10 16.0934 0 0
11:35 pm 23:35 Clear 38 3.6 20 -6.6 48 48 NNE 3 6 30.15 1021 10 16.0934 0 0
11:55 pm 23:55 Clear 39 3.8 20 -6.9 46 46 Calm 30.15 1021 10 16.0934 0 0

Powered by AerisWeather